Flag for U.S.A. Weather past 2 weeks in McAllen, Texas, U.S.A.

Now
81 °F

Mostly cloudy.


Feels Like: 87 °F
Forecast: 78 / 94 °F
Wind: 10 mph from South

Location: Miller International Airport

Current Time: Jul 6, 2015 at 6:39:23 AM

Latest Report: Jul 6, 2015 at 5:53 AM


Visibility: 7 mi

Pressure: 29.98 "Hg

Humidity: 82%

Dew point: 75 °F

Location of McAllenLocation

Historic Weather in McAllen — Graph

°F

McAllen temperature yesterday

Maximum temperature yesterday: 94 °F (at 2:53 PM)
Minimum temperature yesterday: 78 °F (at 2:53 AM)
Average temperature yesterday: 86 °F

Past Weeks' High & Low Weather Summary

 TemperatureHumidityPressure
High97 °F (Jun 27, 1:53 PM)90% (Jun 25, 6:53 AM)30.13 "Hg (Jun 25, 6:53 AM)
Low74 °F (Jul 1, 8:53 AM)38% (Jul 4, 5:53 PM)29.88 "Hg (Jul 4, 6:53 PM)
Average85 °F71%29.99 "Hg
* Reported Jun 21 4:53 AM — Jul 6 4:53 AM, McAllen, Weather by CustomWeather, © 2015

Note: Actual official high and low records may vary slightly from our data, if they occured in-between our weather recording intervals... More about our weather records

Advertising

McAllen weather history for previous 24 hours

 ConditionsComfort  
Time TempWeatherWind HumidityBarometerVisibility
4:53 AM
Mon, Jul 6
82 °FMostly cloudy.14 mph79%29.97 "Hg7 mi
3:53 AM81 °FPassing clouds.10 mph82%29.97 "Hg6 mi
2:53 AM81 °FClear.13 mph82%29.97 "Hg8 mi
1:53 AM82 °FClear.14 mph82%29.98 "Hg7 mi
12:53 AM82 °FClear.16 mph82%29.99 "Hg7 mi
11:53 PM
Sun, Jul 5
83 °FClear.17 mph79%30.00 "Hg8 mi
10:53 PM83 °FClear.16 mph82%29.99 "Hg8 mi
9:53 PM84 °FClear.14 mph77%29.97 "Hg8 mi
8:53 PM86 °FSunny.14 mph70%29.95 "Hg9 mi
7:53 PM88 °FPassing clouds.21 mph65%29.92 "Hg9 mi
6:53 PM91 °FPassing clouds.23 mph57%29.91 "Hg9 mi
5:53 PM93 °FSunny.18 mph52%29.91 "Hg9 mi
4:53 PM94 °FPassing clouds.23 mph52%29.93 "Hg9 mi
3:53 PM94 °FPassing clouds.21 mph52%29.95 "Hg9 mi
2:53 PM94 °FBroken clouds.20 mph56%29.96 "Hg8 mi
1:53 PM92 °FBroken clouds.17 mph56%29.98 "Hg8 mi
12:53 PM93 °FScattered clouds.22 mph56%29.99 "Hg8 mi
11:53 AM90 °FScattered clouds.15 mph59%30.00 "Hg8 mi
10:53 AM88 °FScattered clouds.20 mph65%30.01 "Hg8 mi
9:53 AM86 °FMostly cloudy.15 mph75%30.01 "Hg7 mi
8:53 AM84 °FMostly cloudy.16 mph80%30.00 "Hg7 mi
7:53 AM81 °FFog.12 mph88%29.99 "Hg5 mi
6:53 AM80 °FFog.9 mph87%29.98 "Hg6 mi
Weather by CustomWeather, © 2015

See weather overviewHow to use our weather pages